FW2087 Weather Reports


time (UTC)temp
C
wind
direction
speed
KPH
gust
KPH
rain 1hr
cm
rain 24hr
cm
rain mn
cm
humidity
%
barometer
mb
20260906113044 21 115 0.0 0.0 0.00 0.00 0.00 100 1012.4
20260906111602 21 115 0.0 0.0 0.00 0.00 0.00 99 1012.3
20260906110012 21 115 0.0 0.0 0.00 0.00 0.00 99 1012.0
20260906104536 21 115 0.0 0.0 0.00 0.00 0.00 99 1011.9
20260906103051 22 115 0.0 0.0 0.00 0.00 0.00 99 1012.0
20260906101508 22 115 0.0 0.0 0.00 0.00 0.00 99 1011.8
20260906100030 22 115 0.0 0.0 0.00 0.00 0.00 100 1011.8
20260906094607 22 115 0.0 0.0 0.00 0.00 0.00 100 1011.7
20260906093117 22 115 0.0 1.6 0.00 0.00 0.00 99 1011.7
20260906091516 22 172 0.0 0.0 0.00 0.00 0.00 99 1011.8
20260906090021 22 172 0.0 0.0 0.00 0.00 0.00 99 1011.7
20260906084552 22 206 0.0 0.0 0.00 0.00 0.00 99 1011.6
20260906083033 22 206 0.0 0.0 0.00 0.00 0.00 99 1011.8
20260906081536 23 206 0.0 1.6 0.00 0.00 0.00 98 1011.7
20260906080040 23 191 0.0 1.6 0.00 0.00 0.00 99 1011.7
20260906074559 22 205 0.0 3.2 0.00 0.00 0.00 99 1012.2
20260906073004 22 213 0.0 3.2 0.00 0.00 0.00 99 1012.1
20260906071522 22 120 0.0 0.0 0.00 0.00 0.00 99 1011.8
20260906070042 22 120 0.0 0.0 0.00 0.00 0.00 99 1011.4
20260906064603 22 120 0.0 0.0 0.00 0.00 0.00 99 1011.5
20260906063026 22 204 0.0 0.0 0.00 0.00 0.00 99 1011.8
20260906061551 22 119 0.0 0.0 0.00 0.00 0.00 99 1011.5
20260906060005 22 119 0.0 0.0 0.00 0.00 0.00 99 1011.6
20260906054544 22 119 0.0 0.0 0.00 0.00 0.00 98 1011.8
20260906053104 22 119 0.0 0.0 0.00 0.00 0.00 98 1012.0
20260906051505 22 120 0.0 0.0 0.00 0.00 0.00 98 1012.3
20260906050030 22 119 0.0 0.0 0.00 0.00 0.00 98 1012.2
20260906044548 22 119 0.0 0.0 0.00 0.00 0.00 98 1012.3
20260906043101 22 119 0.0 0.0 0.00 0.00 0.00 98 1012.5
20260906041515 23 119 0.0 0.0 0.00 0.00 0.00 98 1012.6
20260906040034 23 123 0.0 0.0 0.00 0.00 0.00 98 1012.5
20260906011553 25 212 0.0 1.6 0.00 0.00 0.00 93 1011.3
20260906010058 25 212 0.0 0.0 0.00 0.00 0.00 91 1011.4
20260906003056 26 214 0.0 0.0 0.00 0.00 0.00 89 1011.5
20260905234530 27 214 0.0 0.0 0.00 0.00 0.00 85 1011.2
20260905233031 27 214 0.0 0.0 0.00 0.00 0.00 83 1011.2
20260905231552 28 214 0.0 1.6 0.00 0.00 0.00 83 1011.4
20260905223053 28 212 0.0 3.2 0.00 0.00 0.00 80 1011.1
20260905221513 28 308 0.0 4.8 0.00 0.00 0.00 80 1011.3
20260905214537 27 207 0.0 0.0 0.00 0.00 0.00 82 1011.4
20260905213053 27 212 0.0 1.6 0.00 0.00 0.00 84 1011.5
20260905211607 27 193 0.0 1.6 0.00 0.00 0.00 84 1011.7
20260905210013 27 202 0.0 3.2 0.00 0.00 0.00 85 1011.7
20260905204526 27 238 0.0 0.0 0.00 0.00 0.00 82 1011.7
20260905203051 27 239 0.0 0.0 0.00 0.00 0.00 81 1011.9
20260905201605 28 229 0.0 1.6 0.00 0.00 0.00 81 1012.4
20260905200007 28 297 0.0 1.6 0.00 0.00 0.00 80 1012.1
20260905194541 28 8 0.0 1.6 0.00 0.00 0.00 79 1012.3
20260905193039 28 8 0.0 0.0 0.00 0.00 0.00 79 1012.5
20260905191559 28 85 0.0 1.6 0.00 0.00 0.00 75 1012.5
20260905190100 29 85 0.0 1.6 0.00 0.00 0.00 74 1012.7
20260905184551 30 85 0.0 3.2 0.00 0.00 0.00 75 1012.7
20260905183039 31 171 0.0 6.4 0.00 0.00 0.00 71 1012.3
20260905181542 32 28 1.6 8.0 0.00 0.00 0.00 68 1012.3
20260905180055 35 75 0.0 3.2 0.00 0.00 0.00 62 1012.5
20260905174551 35 100 0.0 3.2 0.00 0.00 0.00 63 1012.4
20260905173044 35 27 0.0 6.4 0.00 0.00 0.00 65 1012.5
20260905171532 33 103 3.2 9.7 0.00 0.00 0.00 66 1012.6
20260905170108 34 119 1.6 4.8 0.00 0.00 0.00 66 1012.8
20260905164503 33 106 0.0 4.8 0.00 0.00 0.00 71 1013.3
20260905163035 32 127 0.0 1.6 0.00 0.00 0.00 72 1013.5
20260905161538 32 121 0.0 3.2 0.00 0.00 0.00 72 1013.6
20260905160055 32 108 0.0 4.8 0.00 0.00 0.00 74 1013.6
20260905154559 31 209 1.6 6.4 0.00 0.00 0.00 75 1013.6
20260905153100 31 120 3.2 6.4 0.00 0.00 0.00 76 1013.8
20260905151501 30 130 0.0 8.0 0.00 0.00 0.00 79 1013.9
20260905144551 28 172 0.0 3.2 0.00 0.00 0.00 84 1014.2
20260905143048 27 161 0.0 0.0 0.00 0.00 0.00 85 1014.2
20260905141543 27 117 0.0 6.4 0.00 0.00 0.00 86 1014.3
20260905140038 27 222 0.0 1.6 0.00 0.00 0.00 87 1014.4
20260905134532 26 222 0.0 4.8 0.00 0.00 0.00 88 1014.5
20260905133058 26 141 0.0 3.2 0.00 0.00 0.00 91 1014.8
20260905131558 25 229 0.0 3.2 0.00 0.00 0.00 93 1014.7
20260905130002 25 112 0.0 4.8 0.00 0.00 0.00 96 1014.7
20260905124510 24 144 0.0 1.6 0.00 0.00 0.00 100 1014.8
20260905123022 23 194 0.0 0.0 0.00 0.00 0.00 100 1014.8
20260905121542 22 194 0.0 0.0 0.00 0.00 0.00 100 1014.8
20260905120044 22 194 0.0 0.0 0.00 0.00 0.00 100 1014.6
20260905114549 22 195 0.0 0.0 0.00 0.00 0.00 100 1014.2